Time,TemperatureF,DewpointF,PressureIn,WindDirection,WindDirectionDegrees,WindSpeedMPH,WindSpeedGustMPH,Humidity,HourlyPrecipIn,Conditions,Clouds,dailyrainin,SoftwareType,DateUTC
2013-05-29 00:01:00,52.2,51.0,30.19,West,270,5.6,16.6,98,0.00,,,0.00,Rainwise IP-100,2013-05-29 07:01:00,
2013-05-29 00:06:00,52.2,51.0,30.19,WNW,292,7.0,11.2,98,0.00,,,0.00,Rainwise IP-100,2013-05-29 07:06:00,
2013-05-29 00:11:00,52.2,51.0,30.19,WNW,292,14.0,14.0,98,0.00,,,0.00,Rainwise IP-100,2013-05-29 07:11:00,
2013-05-29 00:16:00,52.2,52.0,30.19,WNW,292,6.3,16.1,99,0.00,,,0.00,Rainwise IP-100,2013-05-29 07:16:00,
2013-05-29 00:21:00,52.2,52.0,30.20,WNW,292,5.8,13.5,99,0.00,,,0.00,Rainwise IP-100,2013-05-29 07:21:00,
2013-05-29 00:26:00,52.2,52.0,30.19,West,270,2.6,10.7,99,0.00,,,0.00,Rainwise IP-100,2013-05-29 07:26:00,
2013-05-29 00:31:00,52.3,52.0,30.18,SSW,202,1.9,11.4,99,0.00,,,0.00,Rainwise IP-100,2013-05-29 07:31:00,
2013-05-29 00:32:00,52.3,52.0,30.18,WNW,292,5.1,7.5,99,0.00,,,0.00,Rainwise IP-100,2013-05-29 07:32:00,
2013-05-29 00:37:00,52.2,52.0,30.19,NW,315,2.6,9.8,99,0.00,,,0.00,Rainwise IP-100,2013-05-29 07:37:00,
2013-05-29 00:42:00,52.3,52.0,30.19,WSW,247,1.9,7.9,99,0.00,,,0.00,Rainwise IP-100,2013-05-29 07:42:00,
2013-05-29 00:47:00,52.3,52.0,30.20,WSW,247,1.6,9.1,99,0.00,,,0.00,Rainwise IP-100,2013-05-29 07:47:00,
2013-05-29 00:52:00,52.3,52.0,30.19,WSW,247,2.3,10.3,99,0.00,,,0.00,Rainwise IP-100,2013-05-29 07:52:00,
2013-05-29 00:57:00,52.3,52.0,30.19,West,270,7.7,13.5,99,0.00,,,0.00,Rainwise IP-100,2013-05-29 07:57:00,
2013-05-29 01:02:00,52.3,52.0,30.19,WSW,247,3.5,12.4,99,0.00,,,0.00,Rainwise IP-100,2013-05-29 08:02:00,
2013-05-29 01:07:00,52.3,52.0,30.20,WNW,292,2.1,12.4,99,0.00,,,0.00,Rainwise IP-100,2013-05-29 08:07:00,
2013-05-29 01:12:00,52.4,52.0,30.19,SSW,202,1.2,11.0,99,0.00,,,0.00,Rainwise IP-100,2013-05-29 08:12:00,
2013-05-29 01:17:00,52.5,53.0,30.19,SW,225,5.8,13.1,99,0.00,,,0.00,Rainwise IP-100,2013-05-29 08:17:00,
2013-05-29 01:22:00,52.5,53.0,30.19,WNW,292,4.7,10.0,99,0.00,,,0.00,Rainwise IP-100,2013-05-29 08:22:00,
2013-05-29 01:27:00,52.5,53.0,30.19,WSW,247,4.4,10.7,99,0.00,,,0.00,Rainwise IP-100,2013-05-29 08:27:00,
2013-05-29 01:32:00,52.5,53.0,30.19,WNW,292,7.7,12.4,99,0.00,,,0.00,Rainwise IP-100,2013-05-29 08:32:00,
2013-05-29 01:37:00,52.4,52.0,30.18,SW,225,1.6,11.7,99,0.00,,,0.00,Rainwise IP-100,2013-05-29 08:37:00,
2013-05-29 01:42:00,52.4,52.0,30.18,West,270,5.1,11.2,99,0.00,,,0.00,Rainwise IP-100,2013-05-29 08:42:00,
2013-05-29 01:47:00,52.3,52.0,30.18,WSW,247,4.4,10.3,99,0.00,,,0.00,Rainwise IP-100,2013-05-29 08:47:00,
2013-05-29 01:52:00,52.2,52.0,30.18,WSW,247,2.8,11.4,99,0.00,,,0.00,Rainwise IP-100,2013-05-29 08:52:00,
2013-05-29 01:55:00,52.1,52.0,30.18,West,270,6.5,11.4,99,0.00,,,0.00,Rainwise IP-100,2013-05-29 08:55:00,
2013-05-29 02:00:00,52.0,52.0,30.18,WSW,247,4.9,9.8,99,0.00,,,0.00,Rainwise IP-100,2013-05-29 09:00:00,
2013-05-29 02:05:00,51.9,52.0,30.18,WSW,247,7.2,9.6,99,0.00,,,0.00,Rainwise IP-100,2013-05-29 09:05:00,
2013-05-29 02:10:00,51.9,52.0,30.18,WSW,247,4.2,11.0,99,0.00,,,0.00,Rainwise IP-100,2013-05-29 09:10:00,
2013-05-29 02:15:00,51.9,52.0,30.18,West,270,3.7,9.1,99,0.00,,,0.00,Rainwise IP-100,2013-05-29 09:15:00,
2013-05-29 02:20:00,51.8,52.0,30.18,West,270,7.5,11.4,99,0.00,,,0.00,Rainwise IP-100,2013-05-29 09:20:00,
2013-05-29 02:25:00,51.9,52.0,30.18,West,270,4.9,12.1,99,0.00,,,0.00,Rainwise IP-100,2013-05-29 09:25:00,
2013-05-29 02:30:00,52.0,52.0,30.19,WNW,292,1.9,11.4,99,0.00,,,0.00,Rainwise IP-100,2013-05-29 09:30:00,
2013-05-29 02:35:00,52.1,51.0,30.19,WSW,247,1.9,10.0,98,0.00,,,0.00,Rainwise IP-100,2013-05-29 09:35:00,
2013-05-29 02:40:00,52.1,51.0,30.19,WSW,247,3.3,8.2,98,0.00,,,0.00,Rainwise IP-100,2013-05-29 09:40:00,
2013-05-29 02:45:00,52.1,51.0,30.19,WSW,247,3.7,7.7,98,0.00,,,0.00,Rainwise IP-100,2013-05-29 09:45:00,
2013-05-29 02:50:00,52.1,52.0,30.19,West,270,2.6,7.9,99,0.00,,,0.00,Rainwise IP-100,2013-05-29 09:50:00,
2013-05-29 02:55:00,52.1,52.0,30.19,East,90,1.2,9.3,99,0.00,,,0.00,Rainwise IP-100,2013-05-29 09:55:00,
2013-05-29 03:00:00,52.1,52.0,30.19,SW,225,3.5,9.6,99,0.00,,,0.00,Rainwise IP-100,2013-05-29 10:00:00,
2013-05-29 03:05:00,52.2,52.0,30.20,SW,225,6.8,10.3,99,0.00,,,0.00,Rainwise IP-100,2013-05-29 10:05:00,
2013-05-29 03:10:00,52.2,52.0,30.19,SW,225,5.8,9.1,99,0.00,,,0.00,Rainwise IP-100,2013-05-29 10:10:00,
2013-05-29 03:15:00,52.1,52.0,30.19,WNW,292,1.2,11.9,99,0.00,,,0.00,Rainwise IP-100,2013-05-29 10:15:00,
2013-05-29 03:20:00,52.1,52.0,30.19,WNW,292,4.4,9.8,99,0.00,,,0.00,Rainwise IP-100,2013-05-29 10:20:00,
2013-05-29 03:25:00,52.1,52.0,30.19,WSW,247,4.7,11.9,99,0.00,,,0.00,Rainwise IP-100,2013-05-29 10:25:00,
2013-05-29 03:30:00,52.1,52.0,30.18,WSW,247,3.7,10.3,99,0.00,,,0.00,Rainwise IP-100,2013-05-29 10:30:00,
2013-05-29 03:35:00,52.2,52.0,30.18,West,270,3.7,8.2,99,0.00,,,0.00,Rainwise IP-100,2013-05-29 10:35:00,
2013-05-29 03:40:00,52.2,52.0,30.18,WSW,247,7.2,11.0,99,0.00,,,0.00,Rainwise IP-100,2013-05-29 10:40:00,
2013-05-29 03:45:00,52.2,52.0,30.18,WNW,292,4.4,10.7,99,0.00,,,0.00,Rainwise IP-100,2013-05-29 10:45:00,
2013-05-29 03:50:00,52.2,52.0,30.18,West,270,5.1,9.6,99,0.00,,,0.00,Rainwise IP-100,2013-05-29 10:50:00,
2013-05-29 03:55:00,52.2,52.0,30.18,West,270,4.2,10.5,99,0.00,,,0.00,Rainwise IP-100,2013-05-29 10:55:00,
2013-05-29 04:00:00,52.2,52.0,30.18,WNW,292,5.6,8.2,99,0.00,,,0.00,Rainwise IP-100,2013-05-29 11:00:00,
2013-05-29 04:05:00,52.3,52.0,30.18,WNW,292,4.7,9.8,99,0.00,,,0.00,Rainwise IP-100,2013-05-29 11:05:00,
2013-05-29 04:10:00,52.3,52.0,30.18,WNW,292,1.2,10.7,99,0.00,,,0.00,Rainwise IP-100,2013-05-29 11:10:00,
2013-05-29 04:15:00,52.3,52.0,30.18,NNW,337,0.0,6.1,99,0.00,,,0.00,Rainwise IP-100,2013-05-29 11:15:00,
2013-05-29 04:20:00,52.3,52.0,30.18,WSW,247,3.3,9.1,99,0.00,,,0.00,Rainwise IP-100,2013-05-29 11:20:00,
2013-05-29 04:25:00,52.3,52.0,30.18,WSW,247,2.6,6.1,99,0.00,,,0.00,Rainwise IP-100,2013-05-29 11:25:00,
2013-05-29 04:30:00,52.2,51.0,30.18,West,270,4.4,6.8,98,0.00,,,0.00,Rainwise IP-100,2013-05-29 11:30:00,
2013-05-29 04:35:00,52.2,51.0,30.18,WSW,247,9.6,9.6,98,0.00,,,0.00,Rainwise IP-100,2013-05-29 11:35:00,
2013-05-29 04:40:00,52.2,51.0,30.18,WSW,247,1.2,9.6,98,0.00,,,0.00,Rainwise IP-100,2013-05-29 11:40:00,
2013-05-29 04:45:00,52.2,51.0,30.18,West,270,7.0,9.3,98,0.00,,,0.00,Rainwise IP-100,2013-05-29 11:45:00,
2013-05-29 04:50:00,52.3,51.0,30.18,WSW,247,1.9,9.6,98,0.00,,,0.00,Rainwise IP-100,2013-05-29 11:50:00,
2013-05-29 04:55:00,52.3,51.0,30.18,WNW,292,2.1,7.9,98,0.00,,,0.00,Rainwise IP-100,2013-05-29 11:55:00,
2013-05-29 05:00:00,52.4,51.0,30.18,WNW,292,4.2,7.0,98,0.00,,,0.00,Rainwise IP-100,2013-05-29 12:00:00,
2013-05-29 05:05:00,52.4,51.0,30.18,WSW,247,4.4,9.8,98,0.00,,,0.00,Rainwise IP-100,2013-05-29 12:05:00,
2013-05-29 05:10:00,52.3,51.0,30.18,NNW,337,2.3,8.2,98,0.00,,,0.00,Rainwise IP-100,2013-05-29 12:10:00,
2013-05-29 05:15:00,52.3,51.0,30.18,WSW,247,4.7,7.7,98,0.00,,,0.00,Rainwise IP-100,2013-05-29 12:15:00,
2013-05-29 05:20:00,52.3,51.0,30.18,West,270,4.9,9.3,98,0.00,,,0.00,Rainwise IP-100,2013-05-29 12:20:00,
2013-05-29 05:25:00,52.3,51.0,30.18,WNW,292,5.1,6.1,98,0.00,,,0.00,Rainwise IP-100,2013-05-29 12:25:00,
2013-05-29 05:30:00,52.3,51.0,30.18,West,270,1.9,7.0,98,0.00,,,0.00,Rainwise IP-100,2013-05-29 12:30:00,
2013-05-29 05:35:00,52.4,51.0,30.18,SW,225,3.7,6.8,98,0.00,,,0.00,Rainwise IP-100,2013-05-29 12:35:00,
2013-05-29 05:40:00,52.4,51.0,30.18,WNW,292,4.0,6.3,98,0.00,,,0.00,Rainwise IP-100,2013-05-29 12:40:00,
2013-05-29 05:45:00,52.4,51.0,30.18,WNW,292,4.0,7.7,97,0.00,,,0.00,Rainwise IP-100,2013-05-29 12:45:00,
2013-05-29 05:50:00,52.4,51.0,30.18,SW,225,3.5,7.9,97,0.00,,,0.00,Rainwise IP-100,2013-05-29 12:50:00,
2013-05-29 05:55:00,52.4,51.0,30.18,WNW,292,3.5,7.2,97,0.00,,,0.00,Rainwise IP-100,2013-05-29 12:55:00,
2013-05-29 06:00:00,52.5,52.0,30.18,West,270,3.5,7.2,97,0.00,,,0.00,Rainwise IP-100,2013-05-29 13:00:00,
2013-05-29 06:05:00,52.5,52.0,30.18,West,270,2.1,6.8,97,0.00,,,0.00,Rainwise IP-100,2013-05-29 13:05:00,
2013-05-29 06:10:00,52.6,52.0,30.18,WNW,292,0.0,6.5,97,0.00,,,0.00,Rainwise IP-100,2013-05-29 13:10:00,
2013-05-29 06:15:00,52.6,52.0,30.19,West,270,3.5,8.2,97,0.00,,,0.00,Rainwise IP-100,2013-05-29 13:15:00,
2013-05-29 06:20:00,52.6,52.0,30.19,SSW,202,3.0,8.2,97,0.00,,,0.00,Rainwise IP-100,2013-05-29 13:20:00,
2013-05-29 06:25:00,52.7,52.0,30.18,WNW,292,1.6,6.3,97,0.00,,,0.00,Rainwise IP-100,2013-05-29 13:25:00,
2013-05-29 06:30:00,52.7,52.0,30.18,SSW,202,2.6,7.2,97,0.00,,,0.00,Rainwise IP-100,2013-05-29 13:30:00,
2013-05-29 06:35:00,52.7,52.0,30.18,WNW,292,2.8,7.7,97,0.00,,,0.00,Rainwise IP-100,2013-05-29 13:35:00,
2013-05-29 06:40:00,52.8,52.0,30.18,SW,225,3.7,5.4,97,0.00,,,0.00,Rainwise IP-100,2013-05-29 13:40:00,
2013-05-29 06:45:00,52.8,52.0,30.18,NNW,337,2.1,7.2,97,0.00,,,0.00,Rainwise IP-100,2013-05-29 13:45:00,
2013-05-29 06:50:00,52.9,52.0,30.19,West,270,0.0,7.0,97,0.00,,,0.00,Rainwise IP-100,2013-05-29 13:50:00,
2013-05-29 06:55:00,53.0,51.0,30.18,South,180,1.6,7.2,96,0.00,,,0.00,Rainwise IP-100,2013-05-29 13:55:00,
2013-05-29 07:00:00,53.1,51.0,30.18,SW,225,1.4,10.5,96,0.00,,,0.00,Rainwise IP-100,2013-05-29 14:00:00,
2013-05-29 07:05:00,53.2,51.0,30.18,WSW,247,2.6,7.5,96,0.00,,,0.00,Rainwise IP-100,2013-05-29 14:05:00,
2013-05-29 07:10:00,53.4,52.0,30.19,WSW,247,3.7,7.7,96,0.00,,,0.00,Rainwise IP-100,2013-05-29 14:10:00,
2013-05-29 07:15:00,53.6,52.0,30.19,WSW,247,2.6,7.9,96,0.00,,,0.00,Rainwise IP-100,2013-05-29 14:15:00,
2013-05-29 07:20:00,53.6,52.0,30.19,WNW,292,3.0,9.3,96,0.00,,,0.00,Rainwise IP-100,2013-05-29 14:20:00,
2013-05-29 07:25:00,53.6,52.0,30.19,WSW,247,2.6,8.9,96,0.00,,,0.00,Rainwise IP-100,2013-05-29 14:25:00,
2013-05-29 07:30:00,53.6,52.0,30.19,SSW,202,1.4,8.2,96,0.00,,,0.00,Rainwise IP-100,2013-05-29 14:30:00,
2013-05-29 07:35:00,53.6,52.0,30.20,SW,225,4.0,9.6,95,0.00,,,0.00,Rainwise IP-100,2013-05-29 14:35:00,
2013-05-29 07:40:00,53.7,52.0,30.20,West,270,2.1,11.2,95,0.00,,,0.00,Rainwise IP-100,2013-05-29 14:40:00,
2013-05-29 07:45:00,53.7,52.0,30.20,WSW,247,3.7,7.5,95,0.00,,,0.00,Rainwise IP-100,2013-05-29 14:45:00,
2013-05-29 07:50:00,53.8,53.0,30.20,WNW,292,3.3,8.4,95,0.00,,,0.00,Rainwise IP-100,2013-05-29 14:50:00,
2013-05-29 07:55:00,53.8,53.0,30.20,NW,315,4.0,7.9,95,0.00,,,0.00,Rainwise IP-100,2013-05-29 14:55:00,
2013-05-29 08:00:00,53.7,52.0,30.20,SE,135,1.4,7.9,95,0.00,,,0.00,Rainwise IP-100,2013-05-29 15:00:00,
2013-05-29 08:05:00,53.8,53.0,30.20,North,360,1.6,7.9,95,0.00,,,0.00,Rainwise IP-100,2013-05-29 15:05:00,
2013-05-29 08:10:00,53.9,53.0,30.20,WSW,247,6.3,11.4,95,0.00,,,0.00,Rainwise IP-100,2013-05-29 15:10:00,
2013-05-29 08:15:00,53.9,53.0,30.20,NNE,22,1.4,11.7,95,0.00,,,0.00,Rainwise IP-100,2013-05-29 15:15:00,
2013-05-29 08:20:00,53.9,53.0,30.21,SSW,202,6.5,11.0,95,0.00,,,0.00,Rainwise IP-100,2013-05-29 15:20:00,
2013-05-29 08:25:00,53.7,52.0,30.21,WNW,292,3.3,10.0,95,0.00,,,0.00,Rainwise IP-100,2013-05-29 15:25:00,
2013-05-29 08:30:00,53.7,52.0,30.22,SW,225,4.9,8.4,96,0.00,,,0.00,Rainwise IP-100,2013-05-29 15:30:00,
2013-05-29 08:35:00,53.7,52.0,30.22,WSW,247,1.6,8.2,96,0.00,,,0.00,Rainwise IP-100,2013-05-29 15:35:00,
2013-05-29 08:40:00,53.7,52.0,30.22,SW,225,2.3,10.7,96,0.00,,,0.00,Rainwise IP-100,2013-05-29 15:40:00,
2013-05-29 08:45:00,53.9,53.0,30.22,SW,225,5.1,6.3,96,0.00,,,0.00,Rainwise IP-100,2013-05-29 15:45:00,
2013-05-29 08:50:00,54.0,53.0,30.22,WNW,292,1.9,13.3,96,0.00,,,0.00,Rainwise IP-100,2013-05-29 15:50:00,
2013-05-29 08:55:00,54.1,53.0,30.23,WNW,292,7.7,8.9,96,0.00,,,0.00,Rainwise IP-100,2013-05-29 15:55:00,
2013-05-29 09:00:00,54.3,53.5,30.23,WNW,292,2.8,8.9,96,0.00,,,0.00,Rainwise IP-100,2013-05-29 16:00:00,
2013-05-29 09:05:00,54.6,53.5,30.22,South,180,4.7,7.2,96,0.00,,,0.00,Rainwise IP-100,2013-05-29 16:05:00,
2013-05-29 09:10:00,54.9,54.0,30.23,WSW,247,2.6,9.6,95,0.00,,,0.00,Rainwise IP-100,2013-05-29 16:10:00,
2013-05-29 09:15:00,55.2,54.0,30.23,West,270,7.0,9.3,95,0.00,,,0.00,Rainwise IP-100,2013-05-29 16:15:00,
2013-05-29 09:20:00,55.2,53.5,30.23,WNW,292,3.7,11.9,94,0.00,,,0.00,Rainwise IP-100,2013-05-29 16:20:00,
2013-05-29 09:25:00,55.0,53.5,30.22,West,270,7.9,12.1,94,0.00,,,0.00,Rainwise IP-100,2013-05-29 16:25:00,
2013-05-29 09:30:00,54.7,53.0,30.22,WNW,292,5.1,13.8,94,0.00,,,0.00,Rainwise IP-100,2013-05-29 16:30:00,
2013-05-29 09:35:00,54.6,53.0,30.22,WSW,247,2.1,12.6,94,0.00,,,0.00,Rainwise IP-100,2013-05-29 16:35:00,
2013-05-29 09:40:00,54.8,54.0,30.22,ESE,112,1.2,11.7,95,0.00,,,0.00,Rainwise IP-100,2013-05-29 16:40:00,
2013-05-29 09:45:00,54.7,53.5,30.22,WNW,292,6.3,11.9,95,0.00,,,0.00,Rainwise IP-100,2013-05-29 16:45:00,
2013-05-29 09:50:00,54.6,53.5,30.22,WNW,292,4.0,12.8,95,0.00,,,0.00,Rainwise IP-100,2013-05-29 16:50:00,
2013-05-29 09:55:00,54.7,53.0,30.22,West,270,0.0,11.0,94,0.00,,,0.00,Rainwise IP-100,2013-05-29 16:55:00,
2013-05-29 10:00:00,54.9,53.5,30.22,WNW,292,3.3,9.6,94,0.00,,,0.00,Rainwise IP-100,2013-05-29 17:00:00,
2013-05-29 10:05:00,55.4,53.5,30.22,NNW,337,1.6,8.4,94,0.00,,,0.00,Rainwise IP-100,2013-05-29 17:05:00,
2013-05-29 10:10:00,55.9,54.0,30.22,WNW,292,2.3,10.3,93,0.00,,,0.00,Rainwise IP-100,2013-05-29 17:10:00,
2013-05-29 10:15:00,56.4,54.0,30.22,West,270,6.5,10.5,91,0.00,,,0.00,Rainwise IP-100,2013-05-29 17:15:00,
2013-05-29 10:20:00,56.5,54.0,30.21,WNW,292,9.3,12.6,91,0.00,,,0.00,Rainwise IP-100,2013-05-29 17:20:00,
2013-05-29 10:25:00,56.8,54.0,30.21,WSW,247,7.0,13.1,90,0.00,,,0.00,Rainwise IP-100,2013-05-29 17:25:00,
2013-05-29 10:30:00,57.3,54.5,30.22,NW,315,4.4,13.8,89,0.00,,,0.00,Rainwise IP-100,2013-05-29 17:30:00,
2013-05-29 10:35:00,57.5,54.0,30.22,NNE,22,1.2,12.4,88,0.00,,,0.00,Rainwise IP-100,2013-05-29 17:35:00,
2013-05-29 10:40:00,57.7,54.0,30.21,NNW,337,3.0,10.5,88,0.00,,,0.00,Rainwise IP-100,2013-05-29 17:40:00,
2013-05-29 10:45:00,57.8,54.5,30.22,West,270,4.0,10.0,88,0.00,,,0.00,Rainwise IP-100,2013-05-29 17:45:00,
2013-05-29 10:50:00,57.6,54.0,30.22,NW,315,2.3,8.6,88,0.00,,,0.00,Rainwise IP-100,2013-05-29 17:50:00,
2013-05-29 10:55:00,57.1,54.0,30.22,WNW,292,3.0,13.5,89,0.00,,,0.00,Rainwise IP-100,2013-05-29 17:55:00,
2013-05-29 11:00:00,56.8,54.0,30.21,West,270,4.7,15.2,90,0.00,,,0.00,Rainwise IP-100,2013-05-29 18:00:00,
2013-05-29 11:05:00,56.9,54.0,30.21,WSW,247,6.8,11.4,90,0.00,,,0.00,Rainwise IP-100,2013-05-29 18:05:00,
2013-05-29 11:10:00,57.4,54.5,30.21,SSE,157,8.2,13.1,90,0.00,,,0.00,Rainwise IP-100,2013-05-29 18:10:00,
2013-05-29 11:15:00,57.7,54.5,30.21,WSW,247,7.9,14.5,89,0.00,,,0.00,Rainwise IP-100,2013-05-29 18:15:00,
2013-05-29 11:20:00,57.4,54.5,30.21,North,360,1.2,16.8,89,0.00,,,0.00,Rainwise IP-100,2013-05-29 18:20:00,
2013-05-29 11:25:00,57.4,54.5,30.23,WNW,292,3.3,11.9,89,0.00,,,0.00,Rainwise IP-100,2013-05-29 18:25:00,
2013-05-29 11:30:00,57.6,54.5,30.23,WSW,247,3.7,9.6,89,0.00,,,0.00,Rainwise IP-100,2013-05-29 18:30:00,
2013-05-29 11:35:00,57.4,54.5,30.23,SSW,202,3.0,11.4,89,0.00,,,0.00,Rainwise IP-100,2013-05-29 18:35:00,
2013-05-29 11:40:00,57.2,54.0,30.23,WSW,247,1.4,10.5,89,0.00,,,0.00,Rainwise IP-100,2013-05-29 18:40:00,
2013-05-29 11:45:00,57.3,54.5,30.22,WNW,292,5.4,11.4,89,0.00,,,0.00,Rainwise IP-100,2013-05-29 18:45:00,
2013-05-29 11:50:00,57.6,54.0,30.23,WSW,247,7.2,12.6,88,0.00,,,0.00,Rainwise IP-100,2013-05-29 18:50:00,
2013-05-29 11:55:00,57.7,54.0,30.23,SW,225,4.7,13.8,87,0.00,,,0.00,Rainwise IP-100,2013-05-29 18:55:00,
2013-05-29 12:00:00,57.9,54.5,30.23,WNW,292,3.7,12.8,87,0.00,,,0.00,Rainwise IP-100,2013-05-29 19:00:00,
2013-05-29 12:05:00,58.1,54.0,30.23,SW,225,2.3,12.6,86,0.00,,,0.00,Rainwise IP-100,2013-05-29 19:05:00,
2013-05-29 12:10:00,58.4,54.0,30.23,West,270,5.1,11.9,86,0.00,,,0.00,Rainwise IP-100,2013-05-29 19:10:00,
2013-05-29 12:15:00,58.5,54.5,30.23,WNW,292,10.7,13.8,86,0.00,,,0.00,Rainwise IP-100,2013-05-29 19:15:00,
2013-05-29 12:20:00,58.3,54.0,30.22,WNW,292,8.4,13.8,86,0.00,,,0.00,Rainwise IP-100,2013-05-29 19:20:00,
2013-05-29 12:25:00,58.3,54.0,30.21,WSW,247,3.3,14.0,85,0.00,,,0.00,Rainwise IP-100,2013-05-29 19:25:00,
2013-05-29 12:30:00,58.6,54.5,30.22,SSE,157,3.3,14.2,85,0.00,,,0.00,Rainwise IP-100,2013-05-29 19:30:00,
2013-05-29 12:35:00,58.7,54.0,30.22,SW,225,2.3,14.9,84,0.00,,,0.00,Rainwise IP-100,2013-05-29 19:35:00,
2013-05-29 12:40:00,58.9,54.0,30.22,West,270,6.8,15.4,84,0.00,,,0.00,Rainwise IP-100,2013-05-29 19:40:00,
2013-05-29 12:45:00,59.5,54.5,30.21,WNW,292,5.4,14.0,84,0.00,,,0.00,Rainwise IP-100,2013-05-29 19:45:00,
2013-05-29 12:50:00,59.7,54.0,30.21,West,270,3.0,15.4,83,0.00,,,0.00,Rainwise IP-100,2013-05-29 19:50:00,
2013-05-29 12:55:00,59.3,54.0,30.20,NNW,337,8.6,12.6,83,0.00,,,0.00,Rainwise IP-100,2013-05-29 19:55:00,
2013-05-29 13:00:00,59.1,54.0,30.21,ESE,112,3.0,12.8,83,0.00,,,0.00,Rainwise IP-100,2013-05-29 20:00:00,
2013-05-29 13:05:00,59.3,54.0,30.22,West,270,2.6,14.5,83,0.00,,,0.00,Rainwise IP-100,2013-05-29 20:05:00,
2013-05-29 13:10:00,59.2,54.0,30.21,West,270,8.2,13.3,83,0.00,,,0.00,Rainwise IP-100,2013-05-29 20:10:00,
2013-05-29 13:15:00,59.1,54.0,30.21,SSW,202,2.8,12.8,84,0.00,,,0.00,Rainwise IP-100,2013-05-29 20:15:00,
2013-05-29 13:20:00,59.0,54.0,30.21,East,90,2.3,13.8,84,0.00,,,0.00,Rainwise IP-100,2013-05-29 20:20:00,
2013-05-29 13:25:00,59.1,54.0,30.21,WNW,292,18.0,18.0,83,0.00,,,0.00,Rainwise IP-100,2013-05-29 20:25:00,
2013-05-29 13:30:00,59.5,54.0,30.21,SW,225,15.9,18.0,83,0.00,,,0.00,Rainwise IP-100,2013-05-29 20:30:00,
2013-05-29 13:35:00,59.6,54.0,30.21,SW,225,11.0,16.8,82,0.00,,,0.00,Rainwise IP-100,2013-05-29 20:35:00,
2013-05-29 13:40:00,59.7,54.0,30.21,SSE,157,8.2,20.1,82,0.00,,,0.00,Rainwise IP-100,2013-05-29 20:40:00,
2013-05-29 13:45:00,59.8,54.5,30.20,SW,225,6.1,13.1,82,0.00,,,0.00,Rainwise IP-100,2013-05-29 20:45:00,
2013-05-29 13:50:00,59.6,54.0,30.20,East,90,1.6,14.2,82,0.00,,,0.00,Rainwise IP-100,2013-05-29 20:50:00,
2013-05-29 13:55:00,59.5,54.0,30.20,NW,315,6.8,15.9,82,0.00,,,0.00,Rainwise IP-100,2013-05-29 20:55:00,
2013-05-29 14:00:00,59.6,54.0,30.20,SSW,202,4.4,15.2,82,0.00,,,0.00,Rainwise IP-100,2013-05-29 21:00:00,
2013-05-29 14:05:00,59.6,54.0,30.21,West,270,3.3,15.6,82,0.00,,,0.00,Rainwise IP-100,2013-05-29 21:05:00,
2013-05-29 14:10:00,59.6,54.0,30.20,West,270,8.4,15.2,82,0.00,,,0.00,Rainwise IP-100,2013-05-29 21:10:00,
2013-05-29 14:15:00,59.5,54.0,30.20,SSW,202,4.4,15.9,82,0.00,,,0.00,Rainwise IP-100,2013-05-29 21:15:00,
2013-05-29 14:20:00,59.5,54.0,30.20,WSW,247,10.0,10.7,82,0.00,,,0.00,Rainwise IP-100,2013-05-29 21:20:00,
2013-05-29 14:25:00,59.6,54.0,30.20,WSW,247,6.5,17.5,82,0.00,,,0.00,Rainwise IP-100,2013-05-29 21:25:00,
2013-05-29 14:30:00,59.6,53.5,30.20,South,180,4.9,17.5,81,0.00,,,0.00,Rainwise IP-100,2013-05-29 21:30:00,
2013-05-29 14:35:00,59.4,53.5,30.21,West,270,7.5,15.2,81,0.00,,,0.00,Rainwise IP-100,2013-05-29 21:35:00,
2013-05-29 14:40:00,58.9,53.5,30.20,South,180,4.2,15.2,82,0.00,,,0.00,Rainwise IP-100,2013-05-29 21:40:00,
2013-05-29 14:45:00,59.1,54.0,30.20,SSE,157,6.5,15.9,83,0.00,,,0.00,Rainwise IP-100,2013-05-29 21:45:00,
2013-05-29 14:50:00,59.5,54.0,30.20,WSW,247,11.4,20.8,82,0.00,,,0.00,Rainwise IP-100,2013-05-29 21:50:00,
2013-05-29 14:55:00,59.6,53.5,30.20,SW,225,3.7,21.2,81,0.00,,,0.00,Rainwise IP-100,2013-05-29 21:55:00,
2013-05-29 15:00:00,59.8,54.0,30.19,WNW,292,16.3,17.0,80,0.00,,,0.00,Rainwise IP-100,2013-05-29 22:00:00,
2013-05-29 15:05:00,59.6,53.5,30.19,SE,135,1.4,19.8,80,0.00,,,0.00,Rainwise IP-100,2013-05-29 22:05:00,
2013-05-29 15:10:00,59.6,53.5,30.19,WSW,247,6.5,20.8,80,0.00,,,0.00,Rainwise IP-100,2013-05-29 22:10:00,
2013-05-29 15:15:00,59.9,53.5,30.19,WNW,292,2.8,18.9,79,0.00,,,0.00,Rainwise IP-100,2013-05-29 22:15:00,
2013-05-29 15:20:00,60.0,53.5,30.19,West,270,8.4,18.0,79,0.00,,,0.00,Rainwise IP-100,2013-05-29 22:20:00,
2013-05-29 15:25:00,60.1,53.5,30.19,West,270,4.7,16.6,78,0.00,,,0.00,Rainwise IP-100,2013-05-29 22:25:00,
2013-05-29 15:30:00,60.3,53.5,30.19,WNW,292,3.5,14.7,78,0.00,,,0.00,Rainwise IP-100,2013-05-29 22:30:00,
2013-05-29 15:35:00,60.8,54.0,30.18,WNW,292,9.1,14.9,77,0.00,,,0.00,Rainwise IP-100,2013-05-29 22:35:00,
2013-05-29 15:40:00,60.5,53.5,30.18,WNW,292,13.5,21.9,77,0.00,,,0.00,Rainwise IP-100,2013-05-29 22:40:00,
2013-05-29 15:45:00,59.8,53.0,30.18,WNW,292,12.6,22.4,77,0.00,,,0.00,Rainwise IP-100,2013-05-29 22:45:00,
2013-05-29 15:50:00,59.8,53.5,30.18,WNW,292,13.8,23.8,78,0.00,,,0.00,Rainwise IP-100,2013-05-29 22:50:00,
2013-05-29 15:55:00,60.0,53.0,30.18,WNW,292,17.3,21.0,77,0.00,,,0.00,Rainwise IP-100,2013-05-29 22:55:00,
2013-05-29 16:00:00,59.8,53.0,30.18,WNW,292,4.7,23.8,77,0.00,,,0.00,Rainwise IP-100,2013-05-29 23:00:00,
2013-05-29 16:05:00,59.8,53.0,30.17,WNW,292,9.6,23.6,77,0.00,,,0.00,Rainwise IP-100,2013-05-29 23:05:00,
2013-05-29 16:10:00,59.9,53.0,30.17,WNW,292,9.3,22.9,76,0.00,,,0.00,Rainwise IP-100,2013-05-29 23:10:00,
2013-05-29 16:15:00,59.6,52.0,30.17,NW,315,9.1,26.8,76,0.00,,,0.00,Rainwise IP-100,2013-05-29 23:15:00,
2013-05-29 16:20:00,59.8,53.0,30.17,WNW,292,18.4,24.5,76,0.00,,,0.00,Rainwise IP-100,2013-05-29 23:20:00,
2013-05-29 16:25:00,60.0,52.0,30.17,NNW,337,7.7,21.5,75,0.00,,,0.00,Rainwise IP-100,2013-05-29 23:25:00,
2013-05-29 16:30:00,60.2,51.0,30.17,WNW,292,9.3,22.4,74,0.00,,,0.00,Rainwise IP-100,2013-05-29 23:30:00,
2013-05-29 16:35:00,60.5,52.0,30.16,WNW,292,14.9,18.4,74,0.00,,,0.00,Rainwise IP-100,2013-05-29 23:35:00,
2013-05-29 16:40:00,60.7,52.0,30.16,WNW,292,7.9,24.9,73,0.00,,,0.00,Rainwise IP-100,2013-05-29 23:40:00,
2013-05-29 16:45:00,60.6,52.0,30.16,WNW,292,11.4,26.1,73,0.00,,,0.00,Rainwise IP-100,2013-05-29 23:45:00,
2013-05-29 16:50:00,60.2,51.0,30.17,WNW,292,20.5,23.1,73,0.00,,,0.00,Rainwise IP-100,2013-05-29 23:50:00,
2013-05-29 16:55:00,59.9,51.0,30.17,WNW,292,10.3,23.1,73,0.00,,,0.00,Rainwise IP-100,2013-05-29 23:55:00,
2013-05-29 17:00:00,59.9,51.0,30.17,WNW,292,10.0,18.4,73,0.00,,,0.00,Rainwise IP-100,2013-05-30 00:00:00,
2013-05-29 17:05:00,59.9,51.0,30.17,WSW,247,13.8,20.8,73,0.00,,,0.00,Rainwise IP-100,2013-05-30 00:05:00,
2013-05-29 17:10:00,59.7,50.5,30.17,West,270,17.3,20.8,73,0.00,,,0.00,Rainwise IP-100,2013-05-30 00:10:00,
2013-05-29 17:15:00,59.6,50.5,30.16,WNW,292,14.9,21.5,73,0.00,,,0.00,Rainwise IP-100,2013-05-30 00:15:00,
2013-05-29 17:20:00,59.6,50.5,30.15,WNW,292,13.3,20.8,73,0.00,,,0.00,Rainwise IP-100,2013-05-30 00:20:00,
2013-05-29 17:25:00,59.7,50.5,30.16,WNW,292,12.1,22.4,73,0.00,,,0.00,Rainwise IP-100,2013-05-30 00:25:00,
2013-05-29 17:30:00,59.6,50.5,30.15,West,270,6.3,27.0,73,0.00,,,0.00,Rainwise IP-100,2013-05-30 00:30:00,
2013-05-29 17:35:00,59.5,50.5,30.16,West,270,19.8,23.8,73,0.00,,,0.00,Rainwise IP-100,2013-05-30 00:35:00,
2013-05-29 17:40:00,59.4,51.0,30.16,West,270,11.9,23.8,74,0.00,,,0.00,Rainwise IP-100,2013-05-30 00:40:00,
2013-05-29 17:45:00,59.2,50.5,30.16,West,270,11.7,19.6,74,0.00,,,0.00,Rainwise IP-100,2013-05-30 00:45:00,
2013-05-29 17:50:00,59.4,51.0,30.16,WNW,292,11.0,22.9,74,0.00,,,0.00,Rainwise IP-100,2013-05-30 00:50:00,
2013-05-29 17:55:00,59.6,51.0,30.16,West,270,11.9,17.3,74,0.00,,,0.00,Rainwise IP-100,2013-05-30 00:55:00,
2013-05-29 18:00:00,59.6,50.5,30.16,WNW,292,6.1,19.8,73,0.00,,,0.00,Rainwise IP-100,2013-05-30 01:00:00,
2013-05-29 18:05:00,59.7,50.5,30.16,WSW,247,6.5,13.3,73,0.00,,,0.00,Rainwise IP-100,2013-05-30 01:05:00,
2013-05-29 18:10:00,59.8,51.0,30.17,West,270,14.2,18.9,73,0.00,,,0.00,Rainwise IP-100,2013-05-30 01:10:00,
2013-05-29 18:15:00,59.6,50.5,30.16,NNW,337,7.2,16.8,72,0.00,,,0.00,Rainwise IP-100,2013-05-30 01:15:00,
2013-05-29 18:20:00,59.5,50.5,30.15,West,270,11.7,21.9,73,0.00,,,0.00,Rainwise IP-100,2013-05-30 01:20:00,
2013-05-29 18:25:00,59.4,50.5,30.15,WNW,292,4.7,21.5,73,0.00,,,0.00,Rainwise IP-100,2013-05-30 01:25:00,
2013-05-29 18:30:00,59.2,50.5,30.15,NW,315,11.2,19.6,73,0.00,,,0.00,Rainwise IP-100,2013-05-30 01:30:00,
2013-05-29 18:35:00,59.0,50.5,30.14,WSW,247,10.7,21.2,73,0.00,,,0.00,Rainwise IP-100,2013-05-30 01:35:00,
2013-05-29 18:40:00,58.8,50.5,30.15,WNW,292,11.9,22.2,73,0.00,,,0.00,Rainwise IP-100,2013-05-30 01:40:00,
2013-05-29 18:45:00,58.4,50.0,30.15,WNW,292,8.9,19.8,74,0.00,,,0.00,Rainwise IP-100,2013-05-30 01:45:00,
2013-05-29 18:50:00,58.2,50.0,30.15,West,270,11.2,22.2,74,0.00,,,0.00,Rainwise IP-100,2013-05-30 01:50:00,
2013-05-29 18:56:00,58.0,50.5,30.15,WNW,292,11.4,18.2,75,0.00,,,0.00,Rainwise IP-100,2013-05-30 01:56:00,
2013-05-29 19:01:00,57.8,50.5,30.15,WNW,292,12.1,22.6,75,0.00,,,0.00,Rainwise IP-100,2013-05-30 02:01:00,
2013-05-29 19:06:00,57.5,50.0,30.15,West,270,17.5,19.4,75,0.00,,,0.00,Rainwise IP-100,2013-05-30 02:06:00,
2013-05-29 19:11:00,57.3,50.0,30.15,WNW,292,14.9,20.3,76,0.00,,,0.00,Rainwise IP-100,2013-05-30 02:11:00,
2013-05-29 19:16:00,57.0,50.0,30.16,West,270,11.4,20.5,76,0.00,,,0.00,Rainwise IP-100,2013-05-30 02:16:00,
2013-05-29 19:21:00,56.7,49.0,30.16,WSW,247,4.7,20.8,77,0.00,,,0.00,Rainwise IP-100,2013-05-30 02:21:00,
2013-05-29 19:26:00,56.4,49.0,30.16,West,270,9.3,19.4,77,0.00,,,0.00,Rainwise IP-100,2013-05-30 02:26:00,
2013-05-29 19:31:00,56.3,50.0,30.16,WNW,292,11.9,20.3,78,0.00,,,0.00,Rainwise IP-100,2013-05-30 02:31:00,
2013-05-29 19:36:00,56.1,49.0,30.16,WNW,292,4.2,20.3,78,0.00,,,0.00,Rainwise IP-100,2013-05-30 02:36:00,
2013-05-29 19:41:00,56.0,50.0,30.16,West,270,4.7,17.5,79,0.00,,,0.00,Rainwise IP-100,2013-05-30 02:41:00,
2013-05-29 19:46:00,55.8,50.0,30.16,West,270,10.7,18.4,79,0.00,,,0.00,Rainwise IP-100,2013-05-30 02:46:00,
2013-05-29 19:51:00,55.5,50.0,30.16,WNW,292,10.0,17.7,80,0.00,,,0.00,Rainwise IP-100,2013-05-30 02:51:00,
2013-05-29 19:56:00,55.3,49.0,30.16,WNW,292,7.0,14.7,80,0.00,,,0.00,Rainwise IP-100,2013-05-30 02:56:00,
2013-05-29 20:01:00,55.2,49.0,30.17,WNW,292,6.3,14.7,80,0.00,,,0.00,Rainwise IP-100,2013-05-30 03:01:00,
2013-05-29 20:06:00,55.0,50.0,30.16,WNW,292,5.4,13.8,81,0.00,,,0.00,Rainwise IP-100,2013-05-30 03:06:00,
2013-05-29 20:11:00,54.7,49.0,30.17,WNW,292,8.9,16.8,81,0.00,,,0.00,Rainwise IP-100,2013-05-30 03:11:00,
2013-05-29 20:16:00,54.6,49.0,30.16,NNW,337,6.3,15.6,81,0.00,,,0.00,Rainwise IP-100,2013-05-30 03:16:00,
2013-05-29 20:21:00,54.4,49.0,30.16,WNW,292,11.7,14.7,82,0.00,,,0.00,Rainwise IP-100,2013-05-30 03:21:00,
2013-05-29 20:26:00,54.1,48.0,30.16,West,270,11.9,18.2,82,0.00,,,0.00,Rainwise IP-100,2013-05-30 03:26:00,
2013-05-29 20:31:00,53.8,49.0,30.16,WNW,292,11.2,17.7,83,0.00,,,0.00,Rainwise IP-100,2013-05-30 03:31:00,
2013-05-29 20:36:00,53.5,48.0,30.17,WNW,292,7.7,21.7,83,0.00,,,0.00,Rainwise IP-100,2013-05-30 03:36:00,
2013-05-29 20:41:00,53.3,48.0,30.16,WNW,292,9.6,17.7,84,0.00,,,0.00,Rainwise IP-100,2013-05-30 03:41:00,
2013-05-29 20:46:00,53.1,48.0,30.16,West,270,13.1,17.7,85,0.00,,,0.00,Rainwise IP-100,2013-05-30 03:46:00,
2013-05-29 20:51:00,52.8,48.0,30.16,WNW,292,9.1,16.3,85,0.00,,,0.00,Rainwise IP-100,2013-05-30 03:51:00,
2013-05-29 20:56:00,52.7,48.0,30.17,WSW,247,13.3,16.8,86,0.00,,,0.00,Rainwise IP-100,2013-05-30 03:56:00,
2013-05-29 21:01:00,52.7,48.0,30.16,WNW,292,20.1,20.1,86,0.00,,,0.00,Rainwise IP-100,2013-05-30 04:01:00,
2013-05-29 21:06:00,52.6,49.0,30.17,WSW,247,14.2,21.9,87,0.00,,,0.00,Rainwise IP-100,2013-05-30 04:06:00,
2013-05-29 21:11:00,52.5,49.0,30.17,WNW,292,18.2,21.0,87,0.00,,,0.00,Rainwise IP-100,2013-05-30 04:11:00,
2013-05-29 21:16:00,52.4,48.0,30.17,NNW,337,7.5,21.7,87,0.00,,,0.00,Rainwise IP-100,2013-05-30 04:16:00,
2013-05-29 21:21:00,52.3,48.0,30.17,WNW,292,14.0,22.6,87,0.00,,,0.00,Rainwise IP-100,2013-05-30 04:21:00,
2013-05-29 21:26:00,52.2,48.0,30.18,WNW,292,14.0,19.8,87,0.00,,,0.00,Rainwise IP-100,2013-05-30 04:26:00,
2013-05-29 21:31:00,52.1,48.0,30.18,WNW,292,8.4,25.9,87,0.00,,,0.00,Rainwise IP-100,2013-05-30 04:31:00,
2013-05-29 21:36:00,52.0,48.0,30.18,West,270,13.5,25.6,87,0.00,,,0.00,Rainwise IP-100,2013-05-30 04:36:00,
2013-05-29 21:41:00,51.9,48.0,30.17,West,270,15.4,21.0,87,0.00,,,0.00,Rainwise IP-100,2013-05-30 04:41:00,
2013-05-29 21:46:00,51.8,48.0,30.18,WNW,292,10.0,21.9,87,0.00,,,0.00,Rainwise IP-100,2013-05-30 04:46:00,
2013-05-29 21:51:00,51.8,48.0,30.18,West,270,13.5,23.3,87,0.00,,,0.00,Rainwise IP-100,2013-05-30 04:51:00,
2013-05-29 21:56:00,51.8,48.0,30.18,WSW,247,12.1,23.8,87,0.00,,,0.00,Rainwise IP-100,2013-05-30 04:56:00,
2013-05-29 22:01:00,51.9,48.0,30.18,WNW,292,12.4,21.0,87,0.00,,,0.00,Rainwise IP-100,2013-05-30 05:01:00,
2013-05-29 22:06:00,51.8,48.0,30.18,WNW,292,12.6,21.9,87,0.00,,,0.00,Rainwise IP-100,2013-05-30 05:06:00,
2013-05-29 22:11:00,51.8,48.0,30.18,WNW,292,12.8,19.6,87,0.00,,,0.00,Rainwise IP-100,2013-05-30 05:11:00,
2013-05-29 22:16:00,51.8,48.0,30.18,WNW,292,13.1,20.8,87,0.00,,,0.00,Rainwise IP-100,2013-05-30 05:16:00,
2013-05-29 22:21:00,51.9,48.0,30.18,West,270,6.3,21.7,86,0.00,,,0.00,Rainwise IP-100,2013-05-30 05:21:00,
2013-05-29 22:26:00,52.0,48.0,30.18,WNW,292,8.9,25.6,86,0.00,,,0.00,Rainwise IP-100,2013-05-30 05:26:00,
2013-05-29 22:31:00,51.9,48.0,30.18,WNW,292,9.3,22.2,86,0.00,,,0.00,Rainwise IP-100,2013-05-30 05:31:00,
2013-05-29 22:36:00,51.9,48.0,30.18,WNW,292,12.8,20.5,86,0.00,,,0.00,Rainwise IP-100,2013-05-30 05:36:00,
2013-05-29 22:41:00,51.8,48.0,30.18,West,270,16.8,19.1,86,0.00,,,0.00,Rainwise IP-100,2013-05-30 05:41:00,
2013-05-29 22:46:00,51.8,48.0,30.18,WNW,292,14.9,19.6,87,0.00,,,0.00,Rainwise IP-100,2013-05-30 05:46:00,
2013-05-29 22:51:00,51.9,48.0,30.18,WNW,292,4.9,17.7,86,0.00,,,0.00,Rainwise IP-100,2013-05-30 05:51:00,
2013-05-29 22:56:00,52.0,48.0,30.19,WNW,292,6.1,15.2,86,0.00,,,0.00,Rainwise IP-100,2013-05-30 05:56:00,
2013-05-29 23:01:00,52.1,48.0,30.19,NW,315,5.6,11.2,86,0.00,,,0.00,Rainwise IP-100,2013-05-30 06:01:00,
2013-05-29 23:06:00,52.0,48.0,30.19,WNW,292,1.6,11.7,86,0.00,,,0.00,Rainwise IP-100,2013-05-30 06:06:00,
2013-05-29 23:11:00,51.9,48.0,30.19,SE,135,3.0,7.7,86,0.00,,,0.00,Rainwise IP-100,2013-05-30 06:11:00,
2013-05-29 23:16:00,51.7,48.0,30.20,SSW,202,1.9,4.0,86,0.00,,,0.00,Rainwise IP-100,2013-05-30 06:16:00,
2013-05-29 23:21:00,51.5,48.0,30.20,NNW,337,5.6,5.6,87,0.00,,,0.00,Rainwise IP-100,2013-05-30 06:21:00,
2013-05-29 23:26:00,51.3,47.5,30.19,WSW,247,3.5,9.6,87,0.00,,,0.00,Rainwise IP-100,2013-05-30 06:26:00,
2013-05-29 23:31:00,51.2,47.5,30.19,WNW,292,5.6,13.5,88,0.00,,,0.00,Rainwise IP-100,2013-05-30 06:31:00,
2013-05-29 23:36:00,51.1,48.0,30.19,WNW,292,7.0,11.9,89,0.00,,,0.00,Rainwise IP-100,2013-05-30 06:36:00,
2013-05-29 23:41:00,51.0,48.0,30.19,WNW,292,1.4,12.8,89,0.00,,,0.00,Rainwise IP-100,2013-05-30 06:41:00,
2013-05-29 23:46:00,51.0,48.0,30.19,WSW,247,3.7,15.4,90,0.00,,,0.00,Rainwise IP-100,2013-05-30 06:46:00,
2013-05-29 23:51:00,50.9,48.0,30.19,WNW,292,4.0,12.4,90,0.00,,,0.00,Rainwise IP-100,2013-05-30 06:51:00,
2013-05-29 23:56:00,50.9,48.0,30.18,WSW,247,3.3,8.6,90,0.00,,,0.00,Rainwise IP-100,2013-05-30 06:56:00,